QPF
0.18 0.14 0.14 0.21 0.16 0.14 0.13 0.13 0.12 0.14 0.10 0.07 0.05 0.04 0.03 0.03 0.03 0.03 0.02 0.01 0.01 0.01 0.01 0.00 0.01 0.01 0.01 0.02 0.02 0.01 0.01 0.01 0.01 0.02 0.02 0.01 0.01 0.01 0.01 0.01 0.02 0.03 0.06
0.14 0.15 0.14 0.18 0.16 0.15 0.12 0.11 0.09 0.10 0.08 0.06 0.05 0.04 0.02 0.03 0.03 0.02 0.01 0.01 0.01 0.00 0.00 0.00 0.00 0.00 0.00 0.01 0.01 0.01 0.00 0.00 0.01 0.01 0.01 0.01 0.01 0.01 0.01 0.02 0.01 0.02 0.03
0.11 0.15 0.14 0.14 0.12 0.14 0.11 0.09 0.08 0.07 0.06 0.05 0.04 0.04 0.02 0.05 0.04 0.02 0.02 0.01 0.01 0.00 0.00 0.00 0.00 0.01 0.01 0.01 0.01 0.01 0.01 0.01 0.01 0.00 0.00 0.00 0.00 0.01 0.01 0.02 0.01 0.01 0.01
0.12 0.14 0.13 0.11 0.08 0.09 0.12 0.11 0.08 0.07 0.06 0.05 0.03 0.02 0.01 0.03 0.04 0.01 0.01 0.01 0.00 0.00 0.00 0.00 0.00 0.01 0.01 0.01 0.01 0.00 0.00 0.01 0.00 0.00 0.00 0.00 0.00 0.00 0.00 0.01 0.01 0.04 0.02
0.09 0.13 0.12 0.11 0.09 0.07 0.10 0.13 0.09 0.08 0.08 0.06 0.05 0.03 0.01 0.03 0.04 0.02 0.01 0.00 0.00 0.00 0.00 0.00 0.00 0.00 0.00 0.00 0.00 0.00 0.00 0.00 0.00 0.00 0.00 0.00 0.00 0.00 0.00 0.00 0.00 0.00 0.01
0.07 0.10 0.09 0.09 0.07 0.07 0.06 0.09 0.08 0.07 0.07 0.07 0.06 0.03 0.02 0.02 0.03 0.01 0.00 0.00 0.00 0.00 0.00 0.00 0.00 0.00 0.00 0.00 0.00 0.00 0.00 0.00 0.00 0.00 0.00 0.00 0.00 0.00 0.00 0.00 0.00 0.00 0.00
0.05 0.06 0.05 0.04 0.04 0.04 0.04 0.05 0.08 0.07 0.06 0.06 0.05 0.03 0.02 0.02 0.02 0.01 0.00 0.00 0.00 0.00 0.00 0.00 0.00 0.00 0.00 0.00 0.00 0.00 0.00 0.00 0.00 0.00 0.00 0.00 0.00 0.00 0.00 0.00 0.00 0.00 0.00
0.03 0.03 0.03 0.02 0.02 0.02 0.03 0.04 0.06 0.07 0.06 0.06 0.05 0.04 0.03 0.03 0.03 0.01 0.00 0.00 0.00 0.00 0.00 0.00 0.00 0.00 0.00 0.00 0.00 0.00 0.00 0.00 0.00 0.00 0.00 0.00 0.00 0.00 0.00 0.00 0.00 0.00 0.00
0.02 0.02 0.02 0.02 0.01 0.01 0.02 0.02 0.03 0.05 0.06 0.06 0.05 0.03 0.03 0.03 0.03 0.01 0.01 0.00 0.00 0.00 0.00 0.00 0.00 0.00 0.00 0.00 0.00 0.00 0.00 0.00 0.00 0.00 0.00 0.00 0.00 0.00 0.00 0.00 0.00 0.00 0.00
0.01 0.02 0.01 0.01 0.01 0.01 0.01 0.01 0.02 0.04 0.07 0.06 0.05 0.03 0.01 0.02 0.02 0.01 0.00 0.00 0.00 0.00 0.00 0.00 0.00 0.00 0.00 0.00 0.00 0.00 0.00 0.00 0.00 0.00 0.00 0.00 0.00 0.00 0.00 0.00 0.00 0.00 0.00
0.00 0.01 0.01 0.03 0.04 0.03 0.01 0.01 0.02 0.05 0.08 0.06 0.05 0.03 0.02 0.01 0.01 0.00 0.00 0.00 0.00 0.00 0.00 0.00 0.00 0.00 0.00 0.00 0.00 0.00 0.00 0.00 0.00 0.00 0.00 0.00 0.00 0.00 0.00 0.00 0.00 0.00 0.00
0.01 0.00 0.01 0.02 0.09 0.14 0.08 0.03 0.02 0.05 0.10 0.06 0.04 0.04 0.02 0.01 0.00 0.00 0.00 0.00 0.00 0.00 0.00 0.00 0.00 0.00 0.00 0.00 0.00 0.00 0.00 0.00 0.00 0.00 0.00 0.00 0.00 0.00 0.00 0.00 0.00 0.00 0.00
0.01 0.00 0.00 0.01 0.03 0.07 0.11 0.06 0.02 0.03 0.06 0.04 0.03 0.03 0.02 0.01 0.00 0.00 0.00 0.00 0.00 0.00 0.00 0.00 0.00 0.00 0.00 0.00 0.00 0.00 0.00 0.00 0.00 0.00 0.00 0.00 0.00 0.00 0.00 0.00 0.00 0.00 0.00
0.01 0.01 0.00 0.01 0.01 0.01 0.02 0.02 0.01 0.01 0.02 0.02 0.01 0.01 0.01 0.00 0.00 0.00 0.00 0.00 0.00 0.00 0.00 0.00 0.00 0.00 0.00 0.00 0.00 0.00 0.00 0.00 0.00 0.00 0.00 0.00 0.00 0.00 0.00 0.00 0.00 0.00 0.00
0.02 0.01 0.00 0.00 0.01 0.01 0.01 0.01 0.01 0.01 0.00 0.00 0.00 0.00 0.00 0.00 0.00 0.00 0.00 0.00 0.00 0.00 0.00 0.00 0.00 0.00 0.00 0.00 0.00 0.00 0.00 0.00 0.00 0.00 0.00 0.00 0.00 0.00 0.00 0.00 0.00 0.00 0.00
0.02 0.01 0.01 0.00 0.00 0.01 0.00 0.00 0.00 0.00 0.00 0.00 0.00 0.00 0.00 0.00 0.00 0.00 0.00 0.00 0.00 0.00 0.00 0.00 0.00 0.00 0.00 0.00 0.00 0.00 0.00 0.00 0.00 0.00 0.00 0.00 0.00 0.00 0.00 0.00 0.00 0.00 0.00
0.02 0.02 0.01 0.01 0.01 0.00 0.00 0.00 0.00 0.00 0.00 0.00 0.00 0.00 0.00 0.00 0.00 0.00 0.00 0.00 0.00 0.00 0.00 0.00 0.00 0.00 0.00 0.00 0.00 0.00 0.00 0.00 0.00 0.00 0.00 0.00 0.00 0.00 0.00 0.00 0.00 0.00 0.00
0.02 0.02 0.01 0.01 0.01 0.01 0.00 0.00 0.00 0.00 0.00 0.00 0.01 0.00 0.00 0.01 0.01 0.00 0.00 0.00 0.00 0.00 0.00 0.00 0.00 0.00 0.00 0.00 0.00 0.00 0.00 0.00 0.00 0.00 0.00 0.00 0.00 0.00 0.00 0.00 0.00 0.00 0.00
0.03 0.02 0.02 0.01 0.01 0.01 0.01 0.00 0.01 0.01 0.01 0.01 0.01 0.00 0.00 0.01 0.01 0.01 0.00 0.00 0.00 0.00 0.00 0.00 0.00 0.00 0.00 0.00 0.00 0.00 0.00 0.00 0.00 0.00 0.00 0.00 0.00 0.00 0.00 0.00 0.00 0.00 0.00
0.05 0.03 0.02 0.02 0.02 0.02 0.02 0.02 0.01 0.01 0.01 0.01 0.00 0.01 0.01 0.01 0.01 0.00 0.00 0.00 0.00 0.00 0.00 0.00 0.00 0.00 0.00 0.00 0.00 0.00 0.00 0.00 0.00 0.00 0.00 0.00 0.00 0.00 0.00 0.00 0.00 0.00 0.00
0.04 0.03 0.03 0.03 0.04 0.05 0.04 0.03 0.02 0.02 0.02 0.02 0.01 0.01 0.01 0.01 0.01 0.00 0.00 0.00 0.00 0.00 0.00 0.00 0.00 0.00 0.00 0.00 0.01 0.01 0.01 0.00 0.00 0.00 0.00 0.00 0.00 0.00 0.00 0.00 0.00 0.00 0.00
0.03 0.03 0.03 0.03 0.03 0.04 0.04 0.05 0.05 0.05 0.04 0.03 0.02 0.01 0.01 0.01 0.01 0.01 0.01 0.00 0.00 0.01 0.01 0.00 0.00 0.01 0.01 0.01 0.01 0.02 0.02 0.01 0.00 0.00 0.00 0.00 0.00 0.00 0.00 0.00 0.00 0.00 0.00
0.04 0.04 0.04 0.05 0.08 0.08 0.09 0.09 0.08 0.08 0.07 0.05 0.04 0.04 0.03 0.03 0.03 0.03 0.03 0.02 0.01 0.01 0.01 0.01 0.01 0.01 0.02 0.02 0.01 0.01 0.02 0.02 0.02 0.01 0.01 0.00 0.00 0.00 0.00 0.00 0.00 0.00 0.00
0.04 0.03 0.03 0.05 0.08 0.08 0.07 0.08 0.09 0.09 0.07 0.07 0.07 0.07 0.07 0.06 0.05 0.05 0.05 0.04 0.03 0.02 0.02 0.02 0.02 0.02 0.02 0.02 0.02 0.02 0.02 0.03 0.02 0.01 0.01 0.01 0.00 0.00 0.00 0.00 0.00 0.00 0.00
0.03 0.04 0.04 0.05 0.06 0.06 0.07 0.08 0.10 0.10 0.08 0.07 0.09 0.09 0.07 0.06 0.06 0.05 0.03 0.03 0.02 0.03 0.03 0.02 0.03 0.03 0.03 0.03 0.03 0.02 0.01 0.01 0.00 0.00 0.00 0.00 0.00 0.00 0.00 0.00 0.00 0.01 0.01
0.05 0.06 0.08 0.10 0.12 0.13 0.17 0.17 0.16 0.16 0.15 0.12 0.12 0.11 0.10 0.09 0.08 0.06 0.05 0.05 0.04 0.04 0.04 0.04 0.03 0.03 0.03 0.02 0.01 0.01 0.01 0.01 0.01 0.00 0.00 0.00 0.00 0.00 0.00 0.00 0.00 0.01 0.02
MSLP
1009.51 1009.44 1009.34 1009.26 1009.23 1009.32 1009.55 1009.94 1010.47 1011.09 1011.74 1012.34 1012.84 1013.20 1013.43 1013.53 1013.55 1013.55 1013.57 1013.67 1013.85 1014.12 1014.46 1014.84 1015.23 1015.60 1015.93 1016.22 1016.48 1016.70 1016.90 1017.09 1017.25 1017.38 1017.47 1017.49 1017.43 1017.30 1017.10 1016.86 1016.62 1016.40 1016.26
1009.89 1009.90 1009.85 1009.78 1009.75 1009.79 1009.97 1010.31 1010.80 1011.41 1012.05 1012.67 1013.19 1013.55 1013.77 1013.83 1013.80 1013.74 1013.71 1013.77 1013.94 1014.22 1014.60 1015.04 1015.48 1015.88 1016.23 1016.52 1016.74 1016.92 1017.08 1017.22 1017.35 1017.47 1017.56 1017.59 1017.55 1017.43 1017.24 1016.99 1016.73 1016.47 1016.28
1010.39 1010.49 1010.52 1010.49 1010.45 1010.46 1010.57 1010.84 1011.26 1011.80 1012.40 1012.99 1013.49 1013.84 1014.04 1014.08 1014.03 1013.94 1013.89 1013.94 1014.11 1014.42 1014.83 1015.30 1015.77 1016.20 1016.55 1016.83 1017.02 1017.16 1017.27 1017.37 1017.48 1017.60 1017.69 1017.75 1017.74 1017.65 1017.48 1017.24 1016.96 1016.68 1016.44
1010.88 1011.09 1011.21 1011.23 1011.19 1011.17 1011.22 1011.39 1011.71 1012.16 1012.68 1013.21 1013.67 1014.01 1014.20 1014.24 1014.20 1014.12 1014.09 1014.15 1014.34 1014.67 1015.10 1015.58 1016.06 1016.49 1016.84 1017.08 1017.24 1017.35 1017.43 1017.52 1017.62 1017.75 1017.87 1017.96 1017.99 1017.95 1017.81 1017.59 1017.31 1017.01 1016.74
1011.26 1011.56 1011.76 1011.84 1011.82 1011.77 1011.76 1011.84 1012.06 1012.40 1012.83 1013.29 1013.70 1014.03 1014.23 1014.30 1014.30 1014.27 1014.27 1014.37 1014.59 1014.93 1015.36 1015.84 1016.31 1016.71 1017.03 1017.25 1017.39 1017.47 1017.54 1017.63 1017.75 1017.89 1018.05 1018.19 1018.27 1018.28 1018.18 1018.00 1017.74 1017.45 1017.15
1011.43 1011.81 1012.09 1012.23 1012.25 1012.19 1012.13 1012.14 1012.25 1012.49 1012.83 1013.22 1013.60 1013.92 1014.15 1014.28 1014.34 1014.38 1014.45 1014.59 1014.84 1015.18 1015.60 1016.05 1016.48 1016.85 1017.13 1017.32 1017.43 1017.51 1017.59 1017.69 1017.83 1018.02 1018.22 1018.41 1018.54 1018.60 1018.56 1018.42 1018.20 1017.92 1017.62
1011.36 1011.82 1012.17 1012.38 1012.44 1012.40 1012.32 1012.27 1012.31 1012.46 1012.73 1013.06 1013.42 1013.74 1014.01 1014.21 1014.35 1014.47 1014.61 1014.80 1015.07 1015.41 1015.80 1016.21 1016.58 1016.90 1017.14 1017.30 1017.40 1017.48 1017.57 1017.70 1017.87 1018.09 1018.33 1018.57 1018.75 1018.86 1018.87 1018.78 1018.60 1018.36 1018.08
1011.07 1011.60 1012.03 1012.31 1012.43 1012.43 1012.36 1012.29 1012.29 1012.39 1012.60 1012.90 1013.24 1013.59 1013.90 1014.17 1014.39 1014.58 1014.78 1015.02 1015.29 1015.62 1015.97 1016.32 1016.64 1016.90 1017.10 1017.24 1017.33 1017.42 1017.52 1017.67 1017.87 1018.12 1018.38 1018.64 1018.86 1019.00 1019.06 1019.02 1018.89 1018.70 1018.45
1010.63 1011.21 1011.72 1012.09 1012.29 1012.35 1012.32 1012.27 1012.27 1012.35 1012.54 1012.82 1013.16 1013.52 1013.87 1014.19 1014.47 1014.73 1014.97 1015.23 1015.51 1015.81 1016.12 1016.41 1016.68 1016.89 1017.05 1017.17 1017.26 1017.35 1017.47 1017.63 1017.84 1018.09 1018.36 1018.62 1018.84 1019.00 1019.08 1019.09 1019.02 1018.88 1018.69
1010.10 1010.73 1011.32 1011.77 1012.07 1012.22 1012.26 1012.27 1012.30 1012.40 1012.59 1012.87 1013.21 1013.58 1013.95 1014.30 1014.62 1014.91 1015.18 1015.45 1015.71 1015.98 1016.25 1016.50 1016.72 1016.90 1017.03 1017.14 1017.23 1017.32 1017.44 1017.60 1017.80 1018.02 1018.26 1018.50 1018.70 1018.86 1018.95 1018.99 1018.97 1018.89 1018.76
1009.52 1010.21 1010.87 1011.41 1011.81 1012.06 1012.20 1012.29 1012.39 1012.53 1012.75 1013.04 1013.38 1013.75 1014.12 1014.48 1014.80 1015.10 1015.37 1015.63 1015.88 1016.13 1016.36 1016.58 1016.77 1016.92 1017.05 1017.15 1017.23 1017.33 1017.44 1017.58 1017.75 1017.93 1018.12 1018.31 1018.47 1018.60 1018.69 1018.75 1018.76 1018.74 1018.68
1008.93 1009.66 1010.38 1011.00 1011.49 1011.85 1012.11 1012.30 1012.48 1012.69 1012.95 1013.25 1013.60 1013.96 1014.32 1014.66 1014.97 1015.25 1015.51 1015.76 1015.99 1016.22 1016.43 1016.63 1016.81 1016.96 1017.08 1017.18 1017.27 1017.36 1017.46 1017.57 1017.69 1017.82 1017.96 1018.08 1018.19 1018.28 1018.36 1018.42 1018.46 1018.49 1018.50
1008.32 1009.08 1009.83 1010.51 1011.09 1011.54 1011.91 1012.22 1012.50 1012.78 1013.09 1013.42 1013.77 1014.12 1014.46 1014.77 1015.06 1015.32 1015.56 1015.78 1016.00 1016.22 1016.43 1016.63 1016.80 1016.96 1017.09 1017.20 1017.29 1017.38 1017.46 1017.54 1017.62 1017.70 1017.77 1017.84 1017.90 1017.95 1018.00 1018.06 1018.13 1018.19 1018.25
1007.67 1008.43 1009.19 1009.91 1010.54 1011.08 1011.55 1011.96 1012.34 1012.72 1013.09 1013.46 1013.82 1014.16 1014.48 1014.77 1015.03 1015.26 1015.48 1015.70 1015.91 1016.12 1016.34 1016.54 1016.73 1016.90 1017.04 1017.16 1017.25 1017.33 1017.40 1017.46 1017.50 1017.54 1017.57 1017.59 1017.61 1017.63 1017.66 1017.71 1017.78 1017.87 1017.96
1006.96 1007.69 1008.44 1009.16 1009.82 1010.43 1010.99 1011.50 1011.98 1012.44 1012.88 1013.30 1013.69 1014.04 1014.35 1014.62 1014.86 1015.08 1015.29 1015.49 1015.71 1015.93 1016.15 1016.36 1016.56 1016.74 1016.89 1017.01 1017.11 1017.18 1017.24 1017.28 1017.31 1017.32 1017.32 1017.32 1017.32 1017.32 1017.34 1017.38 1017.45 1017.54 1017.64
1006.18 1006.86 1007.56 1008.27 1008.95 1009.61 1010.23 1010.84 1011.41 1011.96 1012.48 1012.96 1013.38 1013.75 1014.07 1014.34 1014.58 1014.79 1015.00 1015.21 1015.43 1015.65 1015.88 1016.09 1016.29 1016.47 1016.61 1016.73 1016.82 1016.88 1016.93 1016.97 1016.99 1017.00 1017.00 1016.99 1016.98 1016.98 1016.99 1017.02 1017.08 1017.16 1017.25
1005.35 1005.96 1006.61 1007.28 1007.97 1008.66 1009.35 1010.03 1010.70 1011.33 1011.92 1012.46 1012.93 1013.34 1013.68 1013.97 1014.22 1014.45 1014.66 1014.88 1015.10 1015.33 1015.55 1015.75 1015.94 1016.09 1016.21 1016.31 1016.38 1016.43 1016.47 1016.50 1016.52 1016.54 1016.55 1016.56 1016.56 1016.57 1016.57 1016.60 1016.63 1016.69 1016.76
1004.50 1005.04 1005.64 1006.29 1006.98 1007.70 1008.44 1009.19 1009.93 1010.64 1011.30 1011.89 1012.42 1012.86 1013.24 1013.56 1013.83 1014.08 1014.31 1014.54 1014.76 1014.98 1015.18 1015.36 1015.51 1015.62 1015.71 1015.76 1015.80 1015.82 1015.84 1015.87 1015.89 1015.93 1015.96 1015.98 1016.00 1016.02 1016.03 1016.04 1016.05 1016.08 1016.11
1003.69 1004.17 1004.74 1005.38 1006.08 1006.83 1007.62 1008.42 1009.21 1009.97 1010.68 1011.32 1011.89 1012.37 1012.79 1013.14 1013.44 1013.71 1013.96 1014.19 1014.41 1014.61 1014.79 1014.92 1015.02 1015.08 1015.11 1015.11 1015.10 1015.09 1015.08 1015.09 1015.12 1015.16 1015.20 1015.25 1015.28 1015.30 1015.31 1015.31 1015.31 1015.30 1015.30
1002.98 1003.44 1004.00 1004.64 1005.36 1006.14 1006.96 1007.79 1008.61 1009.40 1010.13 1010.80 1011.38 1011.89 1012.33 1012.71 1013.04 1013.33 1013.59 1013.83 1014.04 1014.22 1014.35 1014.44 1014.48 1014.48 1014.44 1014.38 1014.32 1014.27 1014.23 1014.22 1014.24 1014.28 1014.33 1014.38 1014.42 1014.44 1014.45 1014.43 1014.41 1014.37 1014.34
1002.42 1002.89 1003.47 1004.15 1004.90 1005.70 1006.53 1007.37 1008.18 1008.96 1009.68 1010.33 1010.91 1011.42 1011.87 1012.26 1012.60 1012.91 1013.18 1013.42 1013.62 1013.77 1013.86 1013.90 1013.88 1013.82 1013.73 1013.62 1013.51 1013.41 1013.35 1013.31 1013.31 1013.34 1013.38 1013.43 1013.46 1013.48 1013.47 1013.45 1013.40 1013.35 1013.29
1002.09 1002.60 1003.22 1003.93 1004.70 1005.51 1006.33 1007.14 1007.92 1008.65 1009.31 1009.92 1010.46 1010.94 1011.37 1011.76 1012.11 1012.43 1012.70 1012.93 1013.12 1013.24 1013.30 1013.30 1013.24 1013.13 1012.99 1012.84 1012.70 1012.57 1012.48 1012.43 1012.41 1012.42 1012.44 1012.47 1012.49 1012.49 1012.47 1012.43 1012.37 1012.31 1012.24
1002.01 1002.58 1003.26 1004.00 1004.79 1005.58 1006.36 1007.11 1007.80 1008.44 1009.02 1009.54 1010.02 1010.45 1010.85 1011.22 1011.56 1011.87 1012.14 1012.37 1012.54 1012.65 1012.68 1012.65 1012.56 1012.43 1012.27 1012.10 1011.94 1011.80 1011.70 1011.63 1011.60 1011.59 1011.59 1011.60 1011.59 1011.57 1011.53 1011.47 1011.41 1011.33 1011.26
1002.24 1002.87 1003.59 1004.35 1005.12 1005.87 1006.58 1007.23 1007.81 1008.33 1008.79 1009.21 1009.60 1009.96 1010.32 1010.66 1010.98 1011.29 1011.55 1011.77 1011.93 1012.03 1012.05 1012.00 1011.90 1011.76 1011.60 1011.43 1011.28 1011.15 1011.05 1010.98 1010.94 1010.91 1010.89 1010.87 1010.83 1010.78 1010.72 1010.64 1010.56 1010.48 1010.40
1002.78 1003.46 1004.20 1004.95 1005.68 1006.36 1006.97 1007.49 1007.93 1008.31 1008.65 1008.95 1009.25 1009.54 1009.84 1010.15 1010.46 1010.75 1011.01 1011.22 1011.37 1011.45 1011.47 1011.42 1011.32 1011.19 1011.04 1010.89 1010.76 1010.65 1010.56 1010.50 1010.46 1010.42 1010.38 1010.32 1010.25 1010.17 1010.07 1009.96 1009.86 1009.76 1009.67
1003.61 1004.31 1005.05 1005.76 1006.43 1007.00 1007.48 1007.87 1008.17 1008.41 1008.62 1008.82 1009.03 1009.26 1009.51 1009.79 1010.08 1010.36 1010.61 1010.81 1010.96 1011.03 1011.04 1010.98 1010.89 1010.77 1010.64 1010.52 1010.41 1010.33 1010.27 1010.21 1010.17 1010.11 1010.04 1009.95 1009.84 1009.71 1009.57 1009.42 1009.29 1009.16 1009.04
Thickness
5749 5750 5748 5748 5747 5746 5745 5744 5743 5742 5741 5739 5738 5736 5735 5736 5737 5738 5737 5736 5736 5735 5734 5732 5731 5730 5728 5726 5725 5723 5721 5719 5719 5716 5713 5715 5717 5717 5717 5717 5716 5715 5715
5745 5745 5746 5745 5744 5742 5742 5742 5741 5740 5740 5739 5738 5737 5735 5734 5735 5735 5735 5735 5734 5733 5732 5731 5729 5728 5726 5724 5723 5721 5718 5717 5717 5712 5706 5703 5706 5711 5714 5714 5713 5713 5713
5745 5744 5743 5742 5741 5740 5739 5740 5739 5739 5738 5738 5736 5735 5732 5731 5729 5730 5731 5732 5733 5731 5730 5729 5728 5726 5724 5721 5720 5719 5717 5713 5713 5712 5706 5699 5695 5699 5706 5709 5709 5709 5709
5746 5744 5742 5740 5741 5740 5739 5738 5737 5737 5737 5736 5734 5731 5728 5725 5726 5728 5729 5730 5731 5730 5729 5727 5726 5724 5723 5721 5720 5718 5715 5712 5708 5708 5708 5705 5702 5696 5695 5700 5703 5705 5705
5747 5744 5743 5743 5742 5741 5738 5737 5736 5735 5734 5734 5733 5731 5728 5727 5726 5727 5727 5727 5728 5728 5727 5726 5724 5722 5721 5719 5717 5715 5713 5711 5707 5705 5704 5702 5700 5697 5692 5688 5692 5696 5699
5749 5746 5745 5743 5741 5740 5738 5736 5734 5732 5732 5732 5732 5731 5728 5726 5724 5724 5724 5724 5724 5724 5724 5723 5722 5720 5719 5717 5715 5713 5711 5708 5706 5703 5701 5698 5695 5693 5690 5685 5684 5685 5691
5750 5746 5744 5742 5740 5739 5737 5735 5732 5730 5731 5731 5731 5731 5729 5728 5726 5725 5724 5722 5721 5720 5721 5721 5719 5718 5716 5715 5713 5711 5708 5706 5703 5701 5698 5696 5694 5693 5689 5685 5681 5680 5683
5752 5750 5747 5744 5742 5740 5738 5735 5732 5731 5731 5731 5730 5730 5729 5728 5726 5726 5724 5723 5721 5720 5720 5719 5718 5716 5715 5713 5711 5708 5706 5704 5701 5699 5696 5694 5692 5691 5688 5684 5679 5675 5674
5754 5751 5749 5746 5744 5741 5739 5737 5734 5732 5731 5731 5730 5729 5729 5727 5726 5725 5724 5723 5721 5720 5719 5717 5716 5714 5712 5710 5708 5705 5703 5701 5698 5696 5694 5691 5689 5688 5686 5683 5680 5673 5667
5754 5752 5750 5748 5746 5744 5741 5739 5736 5734 5732 5731 5729 5729 5728 5727 5725 5724 5722 5722 5721 5719 5717 5715 5713 5711 5709 5707 5705 5702 5700 5697 5695 5693 5691 5688 5686 5685 5683 5680 5677 5674 5668
5757 5754 5752 5750 5748 5745 5742 5739 5736 5733 5731 5730 5729 5728 5726 5726 5724 5723 5722 5721 5719 5717 5715 5713 5711 5709 5707 5704 5702 5699 5697 5694 5692 5690 5688 5685 5683 5681 5679 5677 5674 5670 5666
5761 5757 5754 5750 5746 5743 5741 5738 5736 5734 5733 5731 5729 5727 5725 5724 5722 5721 5720 5719 5717 5716 5714 5711 5709 5707 5704 5702 5699 5696 5694 5691 5688 5686 5684 5682 5680 5677 5675 5672 5670 5667 5664
5762 5758 5754 5750 5748 5745 5742 5739 5738 5736 5734 5731 5728 5726 5724 5722 5721 5720 5718 5717 5715 5713 5712 5709 5706 5704 5702 5699 5697 5694 5691 5689 5686 5684 5681 5678 5676 5673 5671 5668 5666 5664 5662
5765 5760 5756 5753 5751 5748 5745 5742 5739 5738 5735 5732 5729 5726 5724 5723 5721 5720 5718 5716 5714 5711 5709 5707 5705 5702 5700 5697 5695 5692 5689 5686 5684 5681 5679 5676 5673 5670 5668 5665 5663 5660 5657
5765 5763 5759 5756 5753 5750 5747 5745 5741 5739 5737 5733 5729 5727 5726 5723 5721 5719 5716 5714 5712 5710 5707 5704 5702 5700 5697 5695 5692 5689 5686 5683 5680 5678 5676 5674 5672 5670 5667 5664 5660 5656 5652
5768 5767 5764 5760 5756 5753 5750 5747 5744 5741 5739 5735 5731 5729 5725 5722 5720 5717 5715 5712 5709 5707 5704 5702 5699 5697 5696 5694 5691 5687 5683 5679 5676 5674 5672 5671 5669 5668 5665 5663 5660 5656 5650
5772 5770 5769 5766 5763 5760 5756 5751 5748 5744 5739 5736 5733 5729 5726 5722 5719 5717 5713 5710 5707 5704 5701 5699 5696 5694 5692 5691 5688 5684 5680 5676 5673 5671 5668 5667 5667 5665 5662 5660 5657 5654 5651
5776 5775 5773 5771 5768 5766 5761 5757 5751 5745 5741 5737 5733 5730 5726 5722 5718 5714 5711 5708 5705 5701 5698 5696 5693 5690 5689 5687 5684 5681 5676 5673 5670 5668 5666 5663 5662 5661 5658 5655 5652 5650 5648
5782 5780 5778 5775 5771 5767 5764 5757 5751 5746 5741 5737 5734 5731 5727 5722 5717 5712 5709 5706 5702 5699 5696 5693 5690 5687 5685 5684 5681 5677 5672 5669 5667 5666 5664 5661 5659 5658 5655 5650 5647 5645 5644
5780 5779 5778 5774 5769 5767 5763 5756 5750 5746 5742 5740 5737 5732 5727 5722 5716 5712 5708 5704 5700 5697 5694 5691 5688 5685 5683 5681 5678 5674 5669 5664 5663 5662 5660 5659 5656 5654 5651 5645 5642 5639 5640
5776 5776 5774 5771 5769 5767 5762 5754 5750 5747 5746 5742 5736 5731 5726 5722 5716 5711 5706 5702 5698 5694 5690 5687 5685 5683 5680 5678 5675 5671 5666 5663 5660 5657 5656 5655 5653 5650 5647 5642 5638 5637 5636
5772 5772 5769 5767 5767 5766 5761 5754 5750 5750 5745 5739 5733 5728 5723 5719 5714 5707 5702 5698 5694 5689 5685 5682 5679 5678 5677 5675 5672 5669 5664 5661 5657 5655 5654 5652 5649 5645 5642 5638 5636 5633 5628
5767 5767 5766 5763 5761 5761 5759 5753 5751 5746 5740 5733 5729 5724 5719 5715 5711 5704 5698 5693 5689 5685 5681 5677 5674 5672 5672 5670 5669 5665 5662 5658 5653 5652 5650 5647 5643 5639 5636 5634 5631 5626 5621
5759 5760 5759 5756 5753 5754 5754 5751 5747 5742 5736 5729 5724 5719 5714 5709 5705 5700 5696 5690 5685 5680 5676 5673 5670 5668 5666 5664 5663 5661 5658 5654 5648 5645 5642 5639 5636 5632 5630 5627 5624 5621 5616
5751 5752 5750 5747 5745 5746 5744 5742 5738 5734 5728 5723 5718 5713 5709 5704 5699 5695 5692 5689 5685 5682 5676 5672 5668 5663 5661 5662 5659 5655 5651 5647 5643 5638 5633 5630 5626 5624 5621 5619 5616 5613 5609
5741 5740 5738 5737 5736 5735 5733 5732 5731 5727 5721 5714 5710 5706 5702 5697 5692 5688 5684 5683 5680 5677 5673 5670 5666 5663 5660 5657 5653 5649 5645 5640 5635 5628 5624 5621 5618 5615 5613 5610 5608 5605 5601